Starlink 4040

operational
NORAD ID: 53151 Int'l Des: 2022-083 Owner: SPXS Country: US Constellation: starlink
LEOCIRCULAR

Über Starlink 4040

Beschreibung wird geladen...

Live-Position

3D-Globus wird geladen...

Nächste Überflüge

Höhenverlauf

Altitude vs Time

uPlot chart will show altitude changes over time

Zweizeiliger Elementsatz

1 53151U 22083V 25305.49368984 -.00001623 00000-0 -83896-4 0 9998
2 53151 53.2190 19.6116 0001482 105.1834 254.9323 15.08836598182000
Epoch: 1. Nov. 2025 • Age: 19 hours

Aktueller Status

Höhe 539.9 km
Geschwindigkeit 7.60 km/s
Subsatellitenpunkt 16.32°N, 118.45°W
Startdatum 17. Juli 2022
Alter 3.2 years
Typ internet

Technische Details

Klassifizierung Payload
Masse 297.00 kg
Trockenmasse 275.00 kg
Gesamtmasse 297.00 kg
Länge 0.20 m
Durchmesser 2.80 m
Spannweite 9.00 m
Form Box + pan
Hersteller SPXS
Bus-Typ Starlink
Phasenstatus In Orbit
Besitzer/Staat SPXS/US

Große Konstellationen

Loading constellations...